Bemidji, MN

6:33 PM CDT on March 29, 2017 (GMT -0500)
Bemidji-Beltrami County

Weather History for KBJI - June, 2013

Change the Weather History Date:

Saturday, June 29, 2013

  Actual Average Record
Temperature  
Mean Temperature 66 °F -  
Max Temperature 76 °F 76 °F 94 °F (1966)
Min Temperature 54 °F 53 °F 36 °F (1992)
Cooling Degree Days 1    
Growing Degree Days 16 (Base 50)    
Moisture  
Dew Point 56 °F    
Average Humidity 72    
Maximum Humidity 97    
Minimum Humidity 36    
Precipitation  
Precipitation 0.20 in - - ()
Sea Level Pressure  
Sea Level Pressure 29.98 in    
Wind  
Wind Speed 7 mph (North)    
Max Wind Speed 16 mph    
Max Gust Speed 23 mph    
Visibility 9 miles    
Events Rain    
Averages and records for this station are not official NWS values.
T = Trace of Precipitation, MM = Missing Value Source: NWS Daily Summary

Daily Weather History Graph

Daily Weather History Graph

Search for Another Location

Airport or City:

Trip Planner

Search our weather history database for the weather conditions in past years. The results will help you decide how hot, cold, wet, or windy it might be!

Date:

Astronomy

Jun. 29, 2013 Rise Set
Actual Time 5:25 AM CDT 9:20 PM CDT
Civil Twilight 4:45 AM CDT 10:01 PM CDT
Nautical Twilight 3:49 AM CDT 10:56 PM CDT
Astronomical Twilight 2:23 AM CDT 12:22 AM CDT
Moon 12:20 AM CDT 1:10 PM CDT
Length of Visible Light 17h 16m
Length of Day
15h 55m
Waning Gibbous, 55% of the Moon is Illuminated
Jun 29
Waning Gibbous
Jun 29
Last Quarter
Jul 8
New
Jul 15
First Quarter
Jul 22
Full

Hourly Weather History & Observations

Time (CDT) Temp. Dew Point Humidity Pressure Visibility Wind Dir Wind Speed Gust Speed Precip Events Conditions
12:11 AM 59.2 °F 57.2 °F 93% 29.90 in 10.0 mi NNE 3.5 mph - N/A   Scattered Clouds
12:31 AM 59.5 °F 57.9 °F 94% 29.90 in 10.0 mi North 4.6 mph - N/A   Mostly Cloudy
12:52 AM 59.9 °F 58.6 °F 96% 29.90 in 10.0 mi North 6.9 mph - N/A   Mostly Cloudy
1:11 AM 59.9 °F 58.3 °F 94% 29.90 in 10.0 mi North 5.8 mph - N/A   Scattered Clouds
1:31 AM 59.5 °F 57.9 °F 94% 29.90 in 10.0 mi NNW 5.8 mph - N/A   Mostly Cloudy
1:52 AM 59.4 °F 57.7 °F 94% 29.90 in 10.0 mi NNW 5.8 mph - N/A Rain Light Rain
2:11 AM 59.4 °F 58.1 °F 96% 29.90 in 10.0 mi NNW 5.8 mph - N/A Rain Light Rain
2:31 AM 59.9 °F 58.8 °F 96% 29.90 in 10.0 mi North 6.9 mph - N/A Rain Rain
2:52 AM 60.6 °F 59.7 °F 97% 29.90 in 10.0 mi North 11.5 mph - N/A   Overcast
3:11 AM 61.2 °F 59.9 °F 96% 29.90 in 10.0 mi North 10.4 mph - N/A Rain Light Rain
3:31 AM 61.2 °F 59.9 °F 96% 29.91 in 10.0 mi North 8.1 mph - 0.01 in   Overcast
3:51 AM 61.0 °F 59.9 °F 96% 29.92 in 10.0 mi North 6.9 mph - 0.01 in Rain Light Rain
4:11 AM 61.0 °F 59.5 °F 95% 29.93 in 10.0 mi North 9.2 mph - 0.01 in Rain Rain
4:31 AM 60.4 °F 59.0 °F 95% 29.94 in 10.0 mi NNE 8.1 mph - 0.04 in Rain Rain
4:51 AM 59.7 °F 58.5 °F 96% 29.94 in 5.0 mi NNE 8.1 mph - 0.09 in Rain Heavy Rain
5:11 AM 59.2 °F 58.3 °F 97% 29.94 in 5.0 mi North 5.8 mph - 0.03 in Rain Rain
5:31 AM 58.6 °F 57.6 °F 96% 29.95 in 10.0 mi North 3.5 mph - 0.08 in   Overcast
5:51 AM 58.1 °F 56.7 °F 95% 29.96 in 10.0 mi NW 4.6 mph - 0.10 in   Overcast
6:12 AM 58.1 °F 57.2 °F 97% 29.95 in 7.0 mi WNW 3.5 mph - N/A   Scattered Clouds
6:31 AM 59.2 °F 57.4 °F 94% 29.96 in 10.0 mi NW 4.6 mph - N/A   Mostly Cloudy
6:51 AM 60.4 °F 58.3 °F 93% 29.96 in 10.0 mi NW 5.8 mph - N/A   Overcast
7:12 AM 60.4 °F 58.5 °F 93% 29.96 in 10.0 mi NNW 5.8 mph - N/A   Mostly Cloudy
7:31 AM 61.3 °F 59.7 °F 94% 29.96 in 10.0 mi NNW 5.8 mph - N/A   Overcast
7:51 AM 61.9 °F 60.1 °F 94% 29.97 in 10.0 mi NNW 6.9 mph - N/A   Overcast
8:12 AM 62.6 °F 60.1 °F 91% 29.97 in 10.0 mi North 8.1 mph - N/A   Overcast
8:31 AM 63.0 °F 59.7 °F 89% 29.97 in 10.0 mi North 10.4 mph - N/A   Overcast
8:51 AM 64.2 °F 60.3 °F 87% 29.97 in 10.0 mi North 5.8 mph - N/A   Mostly Cloudy
9:12 AM 64.2 °F 59.5 °F 85% 29.98 in 10.0 mi North 8.1 mph - N/A   Overcast
9:31 AM 65.7 °F 60.3 °F 83% 29.98 in 10.0 mi North 10.4 mph - N/A   Mostly Cloudy
9:51 AM 66.0 °F 60.3 °F 82% 29.98 in 10.0 mi North 9.2 mph - N/A   Scattered Clouds
10:12 AM 65.8 °F 59.9 °F 81% 29.98 in 10.0 mi North 10.4 mph - N/A   Scattered Clouds
10:31 AM 68.4 °F 60.6 °F 76% 29.99 in 10.0 mi North 8.1 mph - N/A   Scattered Clouds
10:51 AM 67.8 °F 59.9 °F 76% 29.99 in 7.0 mi NNW 10.4 mph - N/A   Scattered Clouds
11:12 AM 69.3 °F 60.8 °F 74% 29.99 in 10.0 mi NNW 8.1 mph - N/A   Clear
11:31 AM 71.1 °F 61.3 °F 71% 29.99 in 7.0 mi North 8.1 mph - N/A   Clear
11:51 AM 71.4 °F 60.1 °F 67% 30.00 in 10.0 mi NNE 9.2 mph - N/A   Scattered Clouds
12:11 PM 72.7 °F 58.1 °F 60% 30.00 in 7.0 mi North 13.8 mph 17.3 mph N/A   Scattered Clouds
12:31 PM 73.9 °F 57.6 °F 56% 30.00 in 10.0 mi NE 12.7 mph - N/A   Scattered Clouds
12:51 PM 71.8 °F 59.4 °F 65% 30.00 in 7.0 mi North 9.2 mph - N/A   Mostly Cloudy
1:11 PM 73.9 °F 56.3 °F 54% 30.00 in 7.0 mi NNE 10.4 mph 16.1 mph N/A   Scattered Clouds
1:31 PM 74.8 °F 53.2 °F 47% 30.00 in 10.0 mi NNE 9.2 mph 17.3 mph N/A   Scattered Clouds
1:52 PM 75.4 °F 54.3 °F 48% 30.00 in 10.0 mi NE 10.4 mph 16.1 mph N/A   Scattered Clouds
2:11 PM 75.7 °F 55.8 °F 50% 30.00 in 7.0 mi North 6.9 mph - N/A   Scattered Clouds
2:31 PM 73.9 °F 53.8 °F 49% 30.00 in 7.0 mi NNE 9.2 mph - N/A   Mostly Cloudy
2:52 PM 75.0 °F 53.6 °F 47% 30.00 in 7.0 mi North 10.4 mph - N/A   Scattered Clouds
3:11 PM 75.7 °F 53.1 °F 45% 30.00 in 7.0 mi North 9.2 mph 19.6 mph N/A   Scattered Clouds
3:31 PM 75.4 °F 50.9 °F 42% 30.00 in 7.0 mi North 16.1 mph 23.0 mph N/A   Mostly Cloudy
3:52 PM 75.7 °F 51.1 °F 42% 30.00 in 10.0 mi North 11.5 mph 20.7 mph N/A   Scattered Clouds
4:11 PM 76.1 °F 50.4 °F 40% 30.00 in 10.0 mi North 12.7 mph 17.3 mph N/A   Scattered Clouds
4:31 PM 75.7 °F 50.4 °F 41% 30.00 in 10.0 mi NNE 11.5 mph - N/A   Scattered Clouds
4:52 PM 76.5 °F 49.5 °F 39% 30.00 in 7.0 mi NNE 12.7 mph - N/A   Clear
5:11 PM 76.6 °F 49.5 °F 38% 30.00 in 10.0 mi NE 11.5 mph 18.4 mph N/A   Clear
5:31 PM 76.5 °F 49.3 °F 38% 30.01 in 10.0 mi NNE 11.5 mph 16.1 mph N/A   Clear
5:52 PM 76.3 °F 48.2 °F 37% 30.01 in 7.0 mi NNE 12.7 mph - N/A   Clear
6:11 PM 75.9 °F 47.3 °F 36% 30.01 in 10.0 mi NNE 12.7 mph 18.4 mph N/A   Clear
6:31 PM 75.6 °F 47.7 °F 37% 30.00 in 7.0 mi NE 9.2 mph 20.7 mph N/A   Clear
6:51 PM 75.2 °F 47.5 °F 37% 30.01 in 10.0 mi NNE 10.4 mph - N/A   Clear
7:11 PM 74.3 °F 48.7 °F 40% 30.01 in 10.0 mi ENE 10.4 mph - N/A   Clear
7:31 PM 73.6 °F 49.8 °F 43% 30.01 in 7.0 mi NE 8.1 mph - N/A   Clear
7:51 PM 72.9 °F 51.6 °F 47% 30.01 in 10.0 mi NE 5.8 mph - N/A   Clear
8:11 PM 72.1 °F 52.2 °F 49% 30.02 in 10.0 mi NE 3.5 mph - N/A   Clear
8:31 PM 70.7 °F 53.6 °F 55% 30.01 in 10.0 mi ESE 5.8 mph - N/A   Scattered Clouds
8:51 PM 68.7 °F 53.1 °F 57% 30.02 in 5.0 mi East 5.8 mph - N/A   Haze
9:12 PM 66.4 °F 52.7 °F 61% 30.02 in 5.0 mi ESE 5.8 mph - N/A   Haze
9:31 PM 65.1 °F 52.0 °F 62% 30.02 in 5.0 mi ESE 4.6 mph - N/A   Haze
9:51 PM 62.8 °F 52.7 °F 70% 30.03 in 5.0 mi ESE 3.5 mph - N/A   Haze
10:12 PM 62.4 °F 53.1 °F 71% 30.04 in 7.0 mi Calm Calm - N/A   Overcast
10:31 PM 59.5 °F 52.0 °F 76% 30.05 in 7.0 mi Calm Calm - N/A   Overcast
10:51 PM 57.4 °F 52.2 °F 83% 30.05 in 7.0 mi Calm Calm - N/A   Overcast
11:12 PM 56.1 °F 51.8 °F 85% 30.05 in 7.0 mi NW 4.6 mph - N/A   Overcast
11:31 PM 56.7 °F 52.5 °F 86% 30.05 in 7.0 mi Calm Calm - N/A   Overcast
11:51 PM 54.5 °F 51.3 °F 89% 30.06 in 7.0 mi Calm Calm - N/A   Overcast